EDW399L LICC-LSZH

Flight info

Callsign EDW399L
Flight time 1h 48m
Altitude 36000
Route BUDIN DCT MALOG DCT GIKIN DCT CANNE Z651 KELIP
Aircraft A320/M-SDE2E3FGIRWXY/L

Departure

Time 2026-04-26 15:20
Airport Catania-Fontanarossa Airport (LICC)

Arrival

Time 2026-04-26 17:08
Airport Zürich Airport (LSZH)
Time Latitude Longitude Altitude Speed Heading
2026-04-26 14:48 37.46969 15.06475 32 ft 0 kts 19°
2026-04-26 15:10 37.46964 15.06473 31 ft 2 kts 19°
2026-04-26 15:10 37.46952 15.06468 30 ft 3 kts 18°
2026-04-26 15:10 37.46926 15.06458 29 ft 3 kts 18°
2026-04-26 15:10 37.46907 15.06449 30 ft 3 kts 24°
2026-04-26 15:11 37.46889 15.06438 30 ft 3 kts 15°
2026-04-26 15:11 37.46870 15.06436 30 ft 3 kts 344°
2026-04-26 15:11 37.46852 15.06446 30 ft 3 kts 322°
2026-04-26 15:11 37.46837 15.06463 32 ft 3 kts 300°
2026-04-26 15:12 37.46831 15.06482 33 ft 2 kts 266°
2026-04-26 15:12 37.46831 15.06490 33 ft 0 kts 264°
2026-04-26 15:14 37.46831 15.06488 33 ft 1 kts 264°
2026-04-26 15:15 37.46827 15.06437 32 ft 12 kts 264°
2026-04-26 15:15 37.46818 15.06336 36 ft 10 kts 263°
2026-04-26 15:15 37.46809 15.06239 38 ft 11 kts 264°
2026-04-26 15:15 37.46801 15.06140 40 ft 13 kts 264°
2026-04-26 15:16 37.46793 15.06033 39 ft 12 kts 264°
2026-04-26 15:16 37.46783 15.05920 42 ft 13 kts 264°
2026-04-26 15:16 37.46775 15.05821 43 ft 10 kts 264°
2026-04-26 15:16 37.46767 15.05718 44 ft 11 kts 265°
2026-04-26 15:17 37.46760 15.05623 45 ft 11 kts 264°
2026-04-26 15:17 37.46754 15.05553 45 ft 12 kts 263°
2026-04-26 15:17 37.46740 15.05416 46 ft 11 kts 262°
2026-04-26 15:17 37.46726 15.05329 47 ft 11 kts 243°
2026-04-26 15:18 37.46676 15.05258 46 ft 11 kts 227°
2026-04-26 15:18 37.46620 15.05199 46 ft 10 kts 209°
2026-04-26 15:18 37.46563 15.05228 47 ft 10 kts 111°
2026-04-26 15:18 37.46564 15.05273 46 ft 0 kts 84°
2026-04-26 15:19 37.46564 15.05275 46 ft 2 kts 84°
2026-04-26 15:19 37.46582 15.05472 44 ft 58 kts 83°
2026-04-26 15:19 37.46648 15.06266 40 ft 121 kts 84°
2026-04-26 15:19 37.46751 15.07525 160 ft 159 kts 85°
2026-04-26 15:20 37.46832 15.08945 745 ft 166 kts 84°
2026-04-26 15:20 37.46996 15.10409 1413 ft 172 kts 81°
2026-04-26 15:20 37.47234 15.11947 1796 ft 192 kts 80°
2026-04-26 15:20 37.47484 15.13704 2036 ft 215 kts 80°
2026-04-26 15:21 37.47765 15.15670 2363 ft 240 kts 80°
2026-04-26 15:21 37.48068 15.17794 3001 ft 251 kts 79°
2026-04-26 15:21 37.48381 15.19990 3772 ft 258 kts 79°
2026-04-26 15:21 37.48699 15.22229 4595 ft 262 kts 79°
2026-04-26 15:22 37.49020 15.24497 5454 ft 264 kts 79°
2026-04-26 15:22 37.49420 15.26764 6302 ft 267 kts 69°
2026-04-26 15:22 37.50288 15.28828 7095 ft 269 kts 52°
2026-04-26 15:22 37.51647 15.30508 7708 ft 279 kts 33°
2026-04-26 15:23 37.53311 15.31806 8470 ft 283 kts 31°
2026-04-26 15:23 37.55003 15.33111 9275 ft 287 kts 31°
2026-04-26 15:23 37.56710 15.34439 10066 ft 290 kts 32°
2026-04-26 15:23 37.58458 15.35805 10525 ft 306 kts 32°
2026-04-26 15:24 37.60336 15.37274 10732 ft 329 kts 32°
2026-04-26 15:24 37.62338 15.38845 11054 ft 346 kts 32°
2026-04-26 15:24 37.64403 15.40469 11625 ft 353 kts 32°
2026-04-26 15:24 37.66499 15.42120 12291 ft 358 kts 32°
2026-04-26 15:25 37.68686 15.43644 12940 ft 362 kts 22°
2026-04-26 15:25 37.70274 15.44318 13369 ft 364 kts 13°
2026-04-26 15:25 37.73661 15.44685 14199 ft 369 kts 355°
2026-04-26 15:25 37.76187 15.44056 14782 ft 372 kts 341°
2026-04-26 15:26 37.78573 15.42887 15387 ft 374 kts 337°
2026-04-26 15:26 37.80999 15.41665 16009 ft 377 kts 337°
2026-04-26 15:26 37.83444 15.40437 16620 ft 379 kts 337°
2026-04-26 15:26 37.85906 15.39203 17212 ft 382 kts 337°
2026-04-26 15:27 37.88389 15.37963 17804 ft 385 kts 338°
2026-04-26 15:27 37.90888 15.36717 18377 ft 388 kts 337°
2026-04-26 15:27 37.93405 15.35459 18879 ft 390 kts 337°
2026-04-26 15:27 37.95937 15.34187 19383 ft 393 kts 337°
2026-04-26 15:28 37.98485 15.32902 19885 ft 395 kts 337°
2026-04-26 15:28 38.01046 15.31610 20375 ft 398 kts 337°
2026-04-26 15:28 38.03626 15.30310 20871 ft 400 kts 337°
2026-04-26 15:28 38.06226 15.29002 21345 ft 403 kts 337°
2026-04-26 15:29 38.08840 15.27689 21813 ft 405 kts 337°
2026-04-26 15:29 38.11467 15.26369 22268 ft 408 kts 337°
2026-04-26 15:29 38.16777 15.23690 23171 ft 413 kts 337°
2026-04-26 15:30 38.22147 15.20968 23997 ft 418 kts 337°
2026-04-26 15:30 38.24858 15.19595 24369 ft 420 kts 337°
2026-04-26 15:30 38.27581 15.18216 24738 ft 422 kts 337°
2026-04-26 15:31 38.30313 15.16829 25105 ft 424 kts 337°
2026-04-26 15:31 38.35813 15.14035 25809 ft 427 kts 337°
2026-04-26 15:31 38.38581 15.12631 26154 ft 429 kts 337°
2026-04-26 15:32 38.42266 15.10757 26605 ft 432 kts 336°
2026-04-26 15:32 38.46951 15.08352 27170 ft 435 kts 335°
2026-04-26 15:32 38.49648 15.06601 27499 ft 435 kts 329°
2026-04-26 15:33 38.52267 15.04751 27837 ft 437 kts 329°
2026-04-26 15:33 38.54934 15.02870 28148 ft 439 kts 329°
2026-04-26 15:33 38.57613 15.00983 28465 ft 441 kts 329°
2026-04-26 15:33 38.60305 14.99086 28772 ft 443 kts 329°
2026-04-26 15:34 38.63011 14.97182 29060 ft 445 kts 329°
2026-04-26 15:34 38.65724 14.95271 29335 ft 447 kts 329°
2026-04-26 15:34 38.68453 14.93345 29611 ft 448 kts 329°
2026-04-26 15:34 38.71188 14.91412 29888 ft 450 kts 329°
2026-04-26 15:35 38.73932 14.89466 30159 ft 452 kts 329°
2026-04-26 15:35 38.76691 14.87505 30393 ft 454 kts 329°
2026-04-26 15:35 38.79449 14.85546 30692 ft 453 kts 329°
2026-04-26 15:35 38.82204 14.83590 31035 ft 452 kts 329°
2026-04-26 15:36 38.84950 14.81641 31374 ft 451 kts 329°
2026-04-26 15:36 38.87689 14.79697 31704 ft 450 kts 329°
2026-04-26 15:36 38.89502 14.78408 31926 ft 449 kts 329°
2026-04-26 15:36 38.92231 14.76463 32261 ft 448 kts 329°
2026-04-26 15:37 38.94949 14.74520 32597 ft 447 kts 329°
2026-04-26 15:37 38.97662 14.72580 32916 ft 446 kts 329°
2026-04-26 15:37 39.00370 14.70642 33248 ft 445 kts 329°
2026-04-26 15:37 39.03071 14.68709 33575 ft 444 kts 329°
2026-04-26 15:38 39.05766 14.66779 33902 ft 443 kts 329°
2026-04-26 15:38 39.08456 14.64854 34210 ft 442 kts 329°
2026-04-26 15:38 39.11138 14.62933 34484 ft 441 kts 329°
2026-04-26 15:38 39.13819 14.61009 34755 ft 440 kts 329°
2026-04-26 15:39 39.16489 14.59089 35017 ft 440 kts 329°
2026-04-26 15:39 39.19158 14.57167 35272 ft 439 kts 329°
2026-04-26 15:39 39.21823 14.55251 35516 ft 438 kts 329°
2026-04-26 15:39 39.23588 14.53983 35664 ft 438 kts 329°
2026-04-26 15:40 39.27142 14.51427 35992 ft 437 kts 329°
2026-04-26 15:40 39.29799 14.49512 36130 ft 437 kts 329°
2026-04-26 15:40 39.35101 14.45688 36161 ft 436 kts 329°
2026-04-26 15:41 39.40363 14.41889 36155 ft 436 kts 329°
2026-04-26 15:41 39.45655 14.38047 36160 ft 436 kts 329°
2026-04-26 15:42 39.50943 14.34201 36159 ft 436 kts 329°
2026-04-26 15:42 39.56233 14.30353 36159 ft 436 kts 329°
2026-04-26 15:43 39.61523 14.26507 36161 ft 436 kts 329°
2026-04-26 15:44 39.69451 14.20705 36163 ft 436 kts 329°
2026-04-26 15:44 39.77380 14.14894 36159 ft 436 kts 329°
2026-04-26 15:45 39.85305 14.09072 36159 ft 436 kts 329°
2026-04-26 15:46 39.93234 14.03248 36154 ft 436 kts 329°
2026-04-26 15:46 39.97624 14.00013 36154 ft 436 kts 329°
2026-04-26 15:47 40.06438 13.93481 36155 ft 437 kts 329°
2026-04-26 15:48 40.11686 13.89591 36155 ft 437 kts 329°
2026-04-26 15:48 40.16978 13.85669 36158 ft 437 kts 329°
2026-04-26 15:49 40.22269 13.81740 36164 ft 438 kts 329°
2026-04-26 15:49 40.27558 13.77790 36164 ft 438 kts 329°
2026-04-26 15:50 40.32849 13.73836 36163 ft 438 kts 329°
2026-04-26 15:50 40.38140 13.69888 36167 ft 438 kts 329°
2026-04-26 15:51 40.43429 13.65931 36165 ft 437 kts 329°
2026-04-26 15:51 40.48712 13.61967 36166 ft 437 kts 329°
2026-04-26 15:52 40.53985 13.57997 36162 ft 437 kts 329°
2026-04-26 15:52 40.59304 13.54144 36159 ft 436 kts 331°
2026-04-26 15:53 40.64663 13.50393 36161 ft 436 kts 331°
2026-04-26 15:53 40.70013 13.46623 36155 ft 436 kts 330°
2026-04-26 15:54 40.75343 13.42811 36150 ft 436 kts 330°
2026-04-26 15:54 40.80668 13.38984 36152 ft 436 kts 330°
2026-04-26 15:55 40.85952 13.35186 36152 ft 435 kts 330°
2026-04-26 15:55 40.91273 13.31364 36153 ft 435 kts 330°
2026-04-26 15:56 40.96591 13.27547 36153 ft 435 kts 330°
2026-04-26 15:56 41.01901 13.23721 36145 ft 435 kts 330°
2026-04-26 15:57 41.07208 13.19877 36145 ft 434 kts 330°
2026-04-26 15:57 41.12509 13.16039 36143 ft 434 kts 330°
2026-04-26 15:58 41.17813 13.12192 36140 ft 435 kts 330°
2026-04-26 15:58 41.23117 13.08330 36148 ft 435 kts 330°
2026-04-26 15:59 41.28416 13.04467 36147 ft 435 kts 330°
2026-04-26 15:59 41.33721 13.00603 36148 ft 434 kts 330°
2026-04-26 16:00 41.39018 12.96738 36151 ft 434 kts 329°
2026-04-26 16:00 41.44307 12.92859 36147 ft 434 kts 329°
2026-04-26 16:01 41.49592 12.88983 36141 ft 434 kts 329°
2026-04-26 16:01 41.54877 12.85099 36136 ft 433 kts 329°
2026-04-26 16:02 41.60155 12.81214 36135 ft 433 kts 329°
2026-04-26 16:02 41.65397 12.77338 36135 ft 433 kts 329°
2026-04-26 16:03 41.70669 12.73430 36127 ft 434 kts 329°
2026-04-26 16:03 41.75947 12.69520 36139 ft 434 kts 329°
2026-04-26 16:04 41.81229 12.65615 36145 ft 434 kts 329°
2026-04-26 16:04 41.86513 12.61695 36139 ft 434 kts 329°
2026-04-26 16:05 41.91793 12.57766 36140 ft 434 kts 329°
2026-04-26 16:05 41.97069 12.53821 36139 ft 434 kts 329°
2026-04-26 16:06 42.02340 12.49879 36138 ft 434 kts 329°
2026-04-26 16:06 42.07616 12.45921 36137 ft 434 kts 329°
2026-04-26 16:07 42.12888 12.41956 36139 ft 434 kts 329°
2026-04-26 16:07 42.18165 12.37995 36138 ft 434 kts 329°
2026-04-26 16:08 42.23441 12.34023 36138 ft 434 kts 329°
2026-04-26 16:08 42.28720 12.30047 36137 ft 434 kts 329°
2026-04-26 16:09 42.33988 12.26062 36136 ft 434 kts 329°
2026-04-26 16:09 42.39255 12.22074 36135 ft 434 kts 329°
2026-04-26 16:10 42.44482 12.18093 36137 ft 434 kts 329°
2026-04-26 16:10 42.49752 12.14082 36137 ft 435 kts 329°
2026-04-26 16:11 42.55025 12.10068 36132 ft 435 kts 329°
2026-04-26 16:11 42.60299 12.06033 36133 ft 435 kts 328°
2026-04-26 16:12 42.65533 12.01897 36137 ft 435 kts 327°
2026-04-26 16:12 42.73249 11.95392 36130 ft 435 kts 326°
2026-04-26 16:13 42.78394 11.91053 36126 ft 435 kts 326°
2026-04-26 16:13 42.83554 11.86738 36126 ft 435 kts 327°
2026-04-26 16:14 42.88713 11.82433 36122 ft 435 kts 326°
2026-04-26 16:15 42.96442 11.75926 36119 ft 435 kts 326°
2026-04-26 16:15 43.01590 11.71583 36120 ft 435 kts 326°
2026-04-26 16:16 43.09320 11.65063 36123 ft 435 kts 326°
2026-04-26 16:16 43.14442 11.60734 36123 ft 435 kts 326°
2026-04-26 16:17 43.19588 11.56370 36126 ft 435 kts 326°
2026-04-26 16:17 43.24723 11.51990 36123 ft 435 kts 326°
2026-04-26 16:18 43.32426 11.45423 36123 ft 435 kts 326°
2026-04-26 16:19 43.40129 11.38843 36127 ft 434 kts 326°
2026-04-26 16:20 43.47823 11.32245 36132 ft 434 kts 326°
2026-04-26 16:20 43.55501 11.25646 36130 ft 434 kts 326°
2026-04-26 16:21 43.60615 11.21236 36127 ft 433 kts 326°
2026-04-26 16:21 43.65728 11.16824 36125 ft 433 kts 326°
2026-04-26 16:22 43.70808 11.12433 36124 ft 433 kts 326°
2026-04-26 16:22 43.75902 11.08000 36122 ft 433 kts 326°
2026-04-26 16:23 43.80993 11.03560 36124 ft 432 kts 326°
2026-04-26 16:23 43.86075 10.99141 36131 ft 432 kts 326°
2026-04-26 16:24 43.91160 10.94709 36146 ft 431 kts 326°
2026-04-26 16:24 43.96236 10.90270 36174 ft 431 kts 326°
2026-04-26 16:25 44.01303 10.85818 36210 ft 431 kts 326°
2026-04-26 16:25 44.06371 10.81367 36250 ft 431 kts 326°
2026-04-26 16:26 44.10581 10.77664 36270 ft 431 kts 326°
2026-04-26 16:26 44.16502 10.72448 36289 ft 431 kts 326°
2026-04-26 16:27 44.21560 10.67984 36292 ft 430 kts 326°
2026-04-26 16:27 44.26616 10.63507 36289 ft 430 kts 325°
2026-04-26 16:28 44.30803 10.59785 36276 ft 429 kts 325°
2026-04-26 16:28 44.36660 10.54579 36263 ft 429 kts 325°
2026-04-26 16:29 44.41689 10.50099 36251 ft 428 kts 325°
2026-04-26 16:29 44.46712 10.45616 36236 ft 428 kts 325°
2026-04-26 16:30 44.50919 10.41849 36206 ft 428 kts 325°
2026-04-26 16:30 44.55896 10.37385 36168 ft 427 kts 325°
2026-04-26 16:31 44.60897 10.32890 36138 ft 427 kts 325°
2026-04-26 16:31 44.65899 10.28388 36116 ft 427 kts 325°
2026-04-26 16:32 44.70903 10.23888 36104 ft 427 kts 325°
2026-04-26 16:32 44.75905 10.19370 36097 ft 427 kts 324°
2026-04-26 16:33 44.80898 10.14843 36099 ft 427 kts 324°
2026-04-26 16:33 44.85888 10.10308 36101 ft 427 kts 324°
2026-04-26 16:34 44.90875 10.05778 36097 ft 427 kts 324°
2026-04-26 16:34 44.95861 10.01233 36074 ft 426 kts 324°
2026-04-26 16:35 45.00838 9.96678 36068 ft 426 kts 324°
2026-04-26 16:35 45.05815 9.92129 36062 ft 426 kts 324°
2026-04-26 16:36 45.10796 9.87572 36045 ft 426 kts 324°
2026-04-26 16:36 45.15768 9.82996 36049 ft 426 kts 324°
2026-04-26 16:37 45.20735 9.78414 36052 ft 426 kts 324°
2026-04-26 16:37 45.25666 9.73863 36051 ft 426 kts 324°
2026-04-26 16:38 45.30634 9.69281 36099 ft 426 kts 324°
2026-04-26 16:38 45.35625 9.64659 36127 ft 425 kts 324°
2026-04-26 16:39 45.40572 9.60053 36147 ft 425 kts 324°
2026-04-26 16:39 45.45479 9.55476 36177 ft 424 kts 324°
2026-04-26 16:40 45.50420 9.50876 36188 ft 424 kts 324°
2026-04-26 16:40 45.55354 9.46268 36189 ft 424 kts 324°
2026-04-26 16:41 45.60280 9.41651 36194 ft 423 kts 324°
2026-04-26 16:41 45.65198 9.37026 36170 ft 423 kts 324°
2026-04-26 16:42 45.70118 9.32402 36139 ft 423 kts 324°
2026-04-26 16:42 45.75031 9.27775 36114 ft 423 kts 324°
2026-04-26 16:43 45.79929 9.23151 36070 ft 422 kts 324°
2026-04-26 16:43 45.84835 9.18509 36072 ft 422 kts 324°
2026-04-26 16:44 45.89736 9.13847 36068 ft 422 kts 324°
2026-04-26 16:44 45.94629 9.09185 36076 ft 423 kts 324°
2026-04-26 16:45 45.99538 9.04511 36078 ft 423 kts 324°
2026-04-26 16:45 46.04441 8.99838 36081 ft 423 kts 324°
2026-04-26 16:46 46.09344 8.95145 36084 ft 423 kts 324°
2026-04-26 16:46 46.14245 8.90538 36087 ft 424 kts 329°
2026-04-26 16:47 46.19819 8.87681 36087 ft 430 kts 348°
2026-04-26 16:47 46.25783 8.86752 36087 ft 431 kts 351°
2026-04-26 16:48 46.31754 8.85867 36081 ft 431 kts 351°
2026-04-26 16:48 46.37722 8.84956 36084 ft 431 kts 351°
2026-04-26 16:49 46.43697 8.84050 36093 ft 432 kts 351°
2026-04-26 16:49 46.49672 8.83153 36114 ft 431 kts 351°
2026-04-26 16:50 46.55647 8.82240 35768 ft 433 kts 351°
2026-04-26 16:50 46.58630 8.81785 35279 ft 431 kts 351°
2026-04-26 16:50 46.61614 8.81329 34799 ft 430 kts 351°
2026-04-26 16:51 46.64568 8.80772 34293 ft 427 kts 344°
2026-04-26 16:51 46.67345 8.79307 33508 ft 424 kts 329°
2026-04-26 16:51 46.69878 8.77119 32709 ft 424 kts 327°
2026-04-26 16:51 46.72405 8.74878 31936 ft 425 kts 327°
2026-04-26 16:52 46.74928 8.72623 31191 ft 425 kts 327°
2026-04-26 16:52 46.76586 8.71137 30702 ft 421 kts 327°
2026-04-26 16:52 46.79852 8.68208 29665 ft 412 kts 327°
2026-04-26 16:52 46.81939 8.66335 28951 ft 407 kts 328°
2026-04-26 16:53 46.84338 8.64183 28147 ft 401 kts 328°
2026-04-26 16:53 46.86661 8.62101 27381 ft 395 kts 328°
2026-04-26 16:53 46.88986 8.60018 26613 ft 389 kts 328°
2026-04-26 16:53 46.91277 8.57966 25877 ft 383 kts 328°
2026-04-26 16:54 46.93528 8.55951 25144 ft 376 kts 328°
2026-04-26 16:54 46.95742 8.53965 24430 ft 372 kts 329°
2026-04-26 16:54 46.97931 8.51997 23738 ft 367 kts 329°
2026-04-26 16:54 47.00087 8.50053 22918 ft 361 kts 329°
2026-04-26 16:55 47.02219 8.48133 22125 ft 358 kts 329°
2026-04-26 16:55 47.04332 8.46224 21351 ft 357 kts 328°
2026-04-26 16:55 47.06438 8.44318 20591 ft 356 kts 328°
2026-04-26 16:55 47.08540 8.42418 19850 ft 354 kts 328°
2026-04-26 16:56 47.12714 8.38640 18419 ft 352 kts 328°
2026-04-26 16:56 47.14796 8.36754 17625 ft 351 kts 328°
2026-04-26 16:56 47.16865 8.34876 16920 ft 348 kts 328°
2026-04-26 16:57 47.18917 8.33012 16279 ft 344 kts 328°
2026-04-26 16:57 47.20943 8.31168 15661 ft 341 kts 328°
2026-04-26 16:57 47.25020 8.27454 14441 ft 348 kts 328°
2026-04-26 16:58 47.27074 8.25583 13958 ft 344 kts 328°
2026-04-26 16:58 47.28413 8.24363 13610 ft 339 kts 328°
2026-04-26 16:58 47.33023 8.20158 12399 ft 332 kts 327°
2026-04-26 16:59 47.34962 8.18386 11882 ft 333 kts 327°
2026-04-26 16:59 47.38865 8.14818 10827 ft 321 kts 326°
2026-04-26 17:00 47.42523 8.11459 9879 ft 298 kts 326°
2026-04-26 17:00 47.45893 8.08357 9142 ft 273 kts 326°
2026-04-26 17:00 47.47585 8.07249 8778 ft 264 kts 346°
2026-04-26 17:01 47.49386 8.07204 8423 ft 258 kts 10°
2026-04-26 17:01 47.51019 8.08187 8072 ft 252 kts 33°
2026-04-26 17:01 47.52246 8.09983 7725 ft 249 kts 56°
2026-04-26 17:01 47.53014 8.12268 7466 ft 247 kts 65°
2026-04-26 17:02 47.53716 8.14588 7228 ft 247 kts 64°
2026-04-26 17:02 47.54416 8.16900 6956 ft 246 kts 64°
2026-04-26 17:02 47.55115 8.19207 6662 ft 246 kts 64°
2026-04-26 17:02 47.55816 8.21518 6357 ft 246 kts 64°
2026-04-26 17:03 47.56514 8.23815 6039 ft 243 kts 64°
2026-04-26 17:03 47.57193 8.26063 5735 ft 235 kts 64°
2026-04-26 17:03 47.57858 8.28274 5448 ft 236 kts 64°
2026-04-26 17:03 47.58525 8.30493 5134 ft 235 kts 64°
2026-04-26 17:04 47.59174 8.32672 4859 ft 229 kts 65°
2026-04-26 17:04 47.59512 8.34939 4678 ft 223 kts 87°
2026-04-26 17:04 47.59315 8.37190 4498 ft 222 kts 108°
2026-04-26 17:04 47.58626 8.39188 4255 ft 214 kts 128°
2026-04-26 17:05 47.57605 8.40726 4047 ft 209 kts 138°
2026-04-26 17:05 47.56546 8.42181 3745 ft 206 kts 137°
2026-04-26 17:05 47.55503 8.43615 3472 ft 202 kts 137°
2026-04-26 17:05 47.54493 8.45002 3220 ft 193 kts 138°
2026-04-26 17:06 47.53542 8.46305 2958 ft 180 kts 137°
2026-04-26 17:06 47.52659 8.47515 2744 ft 166 kts 137°
2026-04-26 17:06 47.51836 8.48642 2510 ft 159 kts 138°
2026-04-26 17:06 47.51040 8.49731 2258 ft 152 kts 136°
2026-04-26 17:07 47.50276 8.50776 2026 ft 148 kts 134°
2026-04-26 17:07 47.49534 8.51792 1817 ft 143 kts 135°
2026-04-26 17:07 47.48814 8.52776 1624 ft 141 kts 133°
2026-04-26 17:07 47.48091 8.53762 1439 ft 141 kts 133°
2026-04-26 17:08 47.47411 8.54699 1399 ft 118 kts 136°
2026-04-26 17:08 47.46945 8.55335 1404 ft 54 kts 137°
2026-04-26 17:08 47.46737 8.55596 1408 ft 28 kts 147°
2026-04-26 17:08 47.46596 8.55680 1400 ft 17 kts 168°
2026-04-26 17:09 47.46478 8.55716 1401 ft 17 kts 167°
2026-04-26 17:09 47.46398 8.55748 1399 ft 19 kts 157°
2026-04-26 17:09 47.46287 8.55884 1403 ft 15 kts 138°
2026-04-26 17:09 47.46222 8.55974 1402 ft 10 kts 136°
2026-04-26 17:10 47.46162 8.56059 1409 ft 13 kts 136°
2026-04-26 17:10 47.46096 8.56150 1401 ft 13 kts 137°
2026-04-26 17:10 47.46024 8.56247 1404 ft 15 kts 137°
2026-04-26 17:10 47.45937 8.56313 1408 ft 14 kts 182°
2026-04-26 17:11 47.45844 8.56298 1401 ft 14 kts 187°
2026-04-26 17:11 47.45749 8.56282 1399 ft 14 kts 185°
2026-04-26 17:11 47.45654 8.56269 1400 ft 13 kts 189°
2026-04-26 17:11 47.45615 8.56176 1397 ft 12 kts 274°
2026-04-26 17:12 47.45632 8.55886 1403 ft 13 kts 255°
2026-04-26 17:12 47.45563 8.55841 1397 ft 11 kts 186°
2026-04-26 17:13 47.45513 8.55677 1398 ft 10 kts 277°
2026-04-26 17:13 47.45522 8.55584 1400 ft 9 kts 277°
2026-04-26 17:13 47.45494 8.55439 1401 ft 7 kts 188°
2026-04-26 17:14 47.45448 8.55456 1400 ft 9 kts 156°
2026-04-26 17:14 47.45287 8.55568 1400 ft 10 kts 150°
2026-04-26 17:14 47.45273 8.55635 1402 ft 5 kts 33°
2026-04-26 17:15 47.45342 8.55646 1399 ft 4 kts
2026-04-26 17:15 47.45352 8.55648 1400 ft 0 kts